Location: Altamira
(10.5079°N, 66.8544°W)
Time: 16:21:20
(UTC+00:00)

SJ-7 - Pass Details

Date: 13 December 2025
Orbit: 498 x 520 km, 97.7° (Epoch: 14 January)

Event Time Altitude Azimuth Distance (km) Brightness Sun altitude
Rises 23:21:27 0° 171° (S) 2,584 7.9 -17.7°
Reaches altitude 10° 23:23:31 10° 172° (S) 1,703 7.0 -18.2°
Maximum altitude 23:27:11 78° 259° (W) 518 4.2 -19.0°
Drops below altitude 10° 23:30:52 10° 345° (NNW) 1,714 6.8 -19.8°
Sets 23:32:58 0° 347° (NNW) 2,603 7.7 -20.3°
